Date String (YYYY-MM-DD hh:mm:ss) UTC,Instrument flags,Ambient pressure (hPa),Sample flow (lpm),Bypass flow (lpm),Sample temperature (°C),Ambient temperature (°C),ASC tube jacket temperature (°C),LED temperature (°C),Box temperature (°C),Sample RH (%),Span deviation,Mass concentration (μg/m³),Mass concentration (μg/m³),Mass concentration (μg/m³)
DateTimeUTC,F1_M11,P_M11,Q1_M11,Q2_M11,T1_M11,T2_M11,T3_M11,T4_M11,T5_M11,U1_M11,ZSPAN_M11,X2_M11,X0_M11,X1_M11
2023-04-06 10:00:00,,0833.4,5.00,0.00,22.6,21.3,00.0,31.0,24.1,06.2,0000.0,0001.48,0003.27,0001.24
2023-04-06 10:01:00,,0833.4,5.00,0.00,22.6,21.1,00.0,31.0,24.0,06.2,0000.0,0001.46,0003.16,0001.23
2023-04-06 10:02:00,,0833.4,5.00,0.00,22.6,21.0,00.0,31.0,24.0,06.2,0000.0,0001.44,0003.12,0001.23
2023-04-06 10:03:00,,0833.4,5.00,0.00,22.5,20.8,00.0,31.0,23.9,06.2,0000.0,0001.45,0003.15,0001.23
2023-04-06 10:04:00,,0833.4,5.00,0.00,22.5,20.7,00.0,31.0,23.8,06.2,0000.0,0001.43,0003.50,0001.21
2023-04-06 10:05:00,,0833.4,5.01,0.00,22.5,20.6,00.0,30.9,23.8,06.2,0000.0,0001.43,0003.67,0001.22
2023-04-06 10:06:00,,0833.4,5.00,0.00,22.5,20.9,00.0,30.9,24.0,06.2,0000.0,0001.43,0003.62,0001.22
2023-04-06 10:07:00,,0833.5,5.01,0.00,22.6,21.9,00.0,30.8,24.4,06.1,0000.0,0001.44,0003.33,0001.22
2023-04-06 10:08:00,,0833.5,4.99,0.00,22.7,22.8,00.0,30.8,24.7,06.0,0000.0,0001.41,0002.48,0001.20
2023-04-06 10:09:00,,0833.5,4.99,0.00,22.8,22.8,00.0,30.9,24.5,05.9,0000.0,0001.40,0002.42,0001.20
2023-04-06 10:10:00,,0833.5,4.99,0.00,22.7,22.4,00.0,30.9,24.3,05.9,0000.0,0001.38,0002.39,0001.18
2023-04-06 10:11:00,,0833.4,5.00,0.00,22.7,22.0,00.0,31.0,24.2,05.9,0000.0,0001.40,0002.50,0001.18
2023-04-06 10:12:00,,0833.5,5.00,0.00,22.6,21.7,00.0,31.0,24.1,06.0,0000.0,0001.42,0002.55,0001.19
2023-04-06 10:13:00,,0833.5,4.99,0.00,22.6,21.4,00.0,31.0,24.0,06.2,0000.0,0001.45,0002.68,0001.19
2023-04-06 10:14:00,,0833.5,5.01,0.00,22.5,21.1,00.0,31.0,23.9,06.1,0000.0,0001.45,0002.72,0001.18
2023-04-06 10:15:00,,0833.5,5.00,0.00,22.5,20.8,00.0,30.9,23.8,06.1,0000.0,0001.47,0002.67,0001.19
2023-04-06 10:16:00,,0833.5,4.99,0.00,22.4,20.6,00.0,30.9,23.7,06.1,0000.0,0001.50,0002.53,0001.19
2023-04-06 10:17:00,,0833.5,5.00,0.00,22.4,20.7,00.0,30.9,23.8,06.1,0000.0,0001.54,0002.60,0001.19
2023-04-06 10:18:00,,0833.6,5.01,0.00,22.5,21.7,00.0,30.8,24.3,06.0,0000.0,0001.51,0002.50,0001.18
2023-04-06 10:19:00,,0833.7,5.00,0.00,22.6,22.7,00.0,30.8,24.6,05.9,0000.0,0001.51,0002.51,0001.18
2023-04-06 10:20:00,,0833.7,4.99,0.00,22.7,22.9,00.0,30.9,24.6,06.0,0000.0,0001.51,0002.60,0001.18
2023-04-06 10:21:00,,0833.7,4.99,0.00,22.7,22.5,00.0,30.9,24.3,06.2,0000.0,0001.52,0003.25,0001.17
2023-04-06 10:22:00,,0833.7,5.01,0.00,22.7,22.0,00.0,30.9,24.2,06.3,0000.0,0001.49,0003.41,0001.17
2023-04-06 10:23:00,,0833.7,5.00,0.00,22.6,21.6,00.0,30.9,24.0,06.2,0000.0,0001.47,0003.37,0001.15
2023-04-06 10:24:00,,0833.6,5.00,0.00,22.6,21.2,00.0,30.9,23.9,06.2,0000.0,0001.44,0003.30,0001.13
2023-04-06 10:25:00,,0833.6,5.00,0.00,22.5,21.0,00.0,30.9,23.8,06.2,0000.0,0001.45,0003.38,0001.13
2023-04-06 10:26:00,,0833.7,4.99,0.00,22.5,20.7,00.0,30.9,23.8,06.4,0000.0,0001.42,0003.23,0001.11
2023-04-06 10:27:00,,0833.7,5.01,0.00,22.4,20.5,00.0,30.9,23.6,06.5,0000.0,0001.38,0003.09,0001.10
2023-04-06 10:28:00,,0833.7,5.01,0.00,22.4,20.5,00.0,30.8,23.7,06.5,0000.0,0001.31,0002.98,0001.09
2023-04-06 10:29:00,,0833.7,5.00,0.00,22.5,21.3,00.0,30.8,24.1,06.4,0000.0,0001.34,0003.10,0001.08
2023-04-06 10:30:00,,0833.7,4.99,0.00,22.6,22.3,00.0,30.7,24.4,06.5,0000.0,0001.37,0003.24,0001.08
2023-04-06 10:31:00,,0833.7,5.00,0.00,22.7,23.0,00.0,30.8,24.7,06.6,0000.0,0001.38,0003.28,0001.09
2023-04-06 10:32:00,,0833.6,5.00,0.00,22.7,22.9,00.0,30.8,24.5,06.6,0000.0,0001.38,0002.83,0001.09
2023-04-06 10:33:00,,0833.7,4.99,0.00,22.7,22.5,00.0,30.9,24.3,06.6,0000.0,0001.38,0002.42,0001.09
2023-04-06 10:34:00,,0833.7,5.00,0.00,22.6,22.0,00.0,30.9,24.1,06.7,0000.0,0001.37,0002.45,0001.09
2023-04-06 10:35:00,,0833.7,5.01,0.00,22.6,21.6,00.0,30.9,24.0,06.7,0000.0,0001.36,0002.41,0001.10
2023-04-06 10:36:00,,0833.7,5.00,0.00,22.6,21.3,00.0,30.9,23.9,06.7,0000.0,0001.33,0002.25,0001.10
2023-04-06 10:37:00,,0833.7,5.00,0.00,22.5,20.9,00.0,30.9,23.8,06.8,0000.0,0001.36,0002.22,0001.12
2023-04-06 10:38:00,,0833.7,4.99,0.00,22.4,20.6,00.0,30.9,23.7,06.7,0000.0,0001.37,0002.19,0001.12
2023-04-06 10:39:00,,0833.7,5.00,0.00,22.4,20.4,00.0,30.9,23.5,06.8,0000.0,0001.38,0002.19,0001.13
2023-04-06 10:40:00,,0833.7,5.01,0.00,22.4,20.5,00.0,30.8,23.7,06.8,0000.0,0001.38,0002.15,0001.13
2023-04-06 10:41:00,,0833.8,5.00,0.00,22.5,21.5,00.0,30.8,24.2,06.7,0000.0,0001.38,0002.08,0001.12
2023-04-06 10:42:00,,0833.8,5.00,0.00,22.6,22.6,00.0,30.7,24.5,06.6,0000.0,0001.38,0002.31,0001.12
2023-04-06 10:43:00,,0833.8,5.00,0.00,22.7,23.2,00.0,30.8,24.7,06.7,0000.0,0001.39,0002.53,0001.11
2023-04-06 10:44:00,,0833.8,4.99,0.00,22.7,23.0,00.0,30.9,24.5,06.7,0000.0,0001.37,0002.47,0001.11
2023-04-06 10:45:00,,0833.8,5.01,0.00,22.7,22.5,00.0,30.9,24.2,06.7,0000.0,0001.38,0002.48,0001.10
2023-04-06 10:46:00,,0833.8,5.00,0.00,22.6,22.0,00.0,30.9,24.1,06.7,0000.0,0001.43,0002.56,0001.10
2023-04-06 10:47:00,,0833.8,5.00,0.00,22.6,21.6,00.0,30.9,23.9,06.7,0000.0,0001.45,0002.60,0001.10
2023-04-06 10:48:00,,0833.8,4.99,0.00,22.5,21.2,00.0,30.9,23.8,06.7,0000.0,0001.45,0002.58,0001.09
2023-04-06 10:49:00,,0833.8,4.99,0.00,22.5,20.9,00.0,30.9,23.7,06.8,0000.0,0001.43,0002.56,0001.09
2023-04-06 10:50:00,,0833.8,5.01,0.00,22.4,20.5,00.0,30.9,23.6,06.8,0000.0,0001.42,0002.55,0001.09
2023-04-06 10:51:00,,0833.8,4.99,0.00,22.3,20.3,00.0,30.8,23.5,06.8,0000.0,0001.41,0002.60,0001.09
2023-04-06 10:52:00,,0833.7,5.00,0.00,22.3,20.7,00.0,30.8,23.8,06.8,0000.0,0001.39,0002.74,0001.09
2023-04-06 10:53:00,,0833.8,5.01,0.00,22.5,21.8,00.0,30.7,24.2,06.6,0000.0,0001.38,0002.44,0001.09
2023-04-06 10:54:00,,0833.8,5.00,0.00,22.6,22.7,00.0,30.7,24.5,06.4,0000.0,0001.39,0002.24,0001.09
2023-04-06 10:55:00,,0833.8,5.00,0.00,22.7,23.2,00.0,30.8,24.6,06.3,0000.0,0001.38,0002.19,0001.09
2023-04-06 10:56:00,,0833.8,4.99,0.00,22.7,22.8,00.0,30.9,24.4,06.2,0000.0,0001.38,0002.16,0001.10
2023-04-06 10:57:00,,0833.8,4.99,0.00,22.7,22.3,00.0,30.9,24.2,06.2,0000.0,0001.38,0002.86,0001.11
2023-04-06 10:58:00,,0833.8,5.01,0.00,22.6,21.9,00.0,30.9,24.0,06.3,0000.0,0001.37,0003.36,0001.11
2023-04-06 10:59:00,,0833.8,5.00,0.00,22.6,21.4,00.0,30.9,23.8,06.4,0000.0,0001.35,0003.33,0001.11
